Погода Остров Котельный

Погода Остров Котельный : погода сейчас, прогноз погоды и архив. Всё, что Вы хотите узнать о погоде Остров Котельный!

Поиск расширенной информации на нашем сайте:

Другие новости

Новости СМИ2

Главная страница сайта

Новости сайта

03.07.2017

Напоминаем, что на нашем специализированном сайте Метеоцентр.Азия вы можете получить высокодетализированные автоматические прогнозы погоды по пунктам России, СНГ и мира в авиационном формате (включающие направление и скорость ветра, видимость, явления погоды, количество и форму облачности, нижнюю и верхнюю границу облачности).


Погода Остров Котельный - сегодня

Время (UTC), дата Ветер
(°,м/с) 
Видим.   Явления Облачность Т
(°С)
Тd
(°С)
f(%) Тe
(°С)
Pmin
(гПа)
dP
(гПа)
Po
(мм)
O2
(г/м3)
Тmin Tmax R s Состояние
почвы
21 19.09.18 310 (СЗ) 10 км  слаб. дождь  10/10 300 м 
[Sc]
+2.4 +1.9 97 -1  1011.4  0.1  757  302           
03 20.09.18 290 (З) 7{10}  20000 м    9/8 300 м средняя 
[Sc|Ac trans]
+2.8 +1.2 89 -1  1013.6  1.1  759  302           
06 20.09.18 280 (З) 20000 м    9/9 300 м 
[Sc]
+2.6 +1.3 91 1014.8  1.2  760  303           
09 20.09.18 290 (З) 6{10}  20000 м    9/9 300 м 
[Sc]
+2.6 -1 77 1015  0.2  760  303           
15 20.09.18 230 (ЮЗ) 20000 м  {ливн. осадки}  10/10 300 м 
[Sc]
+0.7 +0.2 96 1016  0.4  761  306           
18 20.09.18 220 (ЮЗ) 20000 м  {ливн. осадки}  9/6 600 м средняя 
[Sc|Ac trans]
+0.7 +0.4 98 +1  1016  761  306           
21 20.09.18 270 (З) 20000 м  {ливн. осадки}  10/5 600 м средняя 
[Sc|Ac und]
+0.8 +0.5 98 1016.1  0.1  761  306           
03 21.09.18 240 (ЮЗ) 20000 м  {ливн. осадки}  9/9 300 м кучево-дожд. 
[Cb cap]
+2 +1.5 96 +1  1016.4  -0.5  761  304           
06 21.09.18 250 (З) 20000 м  {ливн. осадки}  10/10 300 м кучево-дожд. 
[Cb cap]
+2.4 +0.5 87 1016.3  -0.1  761  304           
09 21.09.18 210 (ЮЗ) 20000 м  {ливн. осадки}  10/10 300 м кучево-дожд. 
[Cb cap]
+0.9 +0.4 96 -1  1015.9  -0.4  761  305           
15 21.09.18 190 (Ю) 20000 м    8/8 600 м 
[Sc]
-0.2 -0.5 98 -3  1014.2  -1.2  759  306           
18 21.09.18 200 (Ю) 20000 м    8/5 600 м средняя 
[Sc|Ac trans]
+0.6 -0.8 90 -2  1013.3  -0.9  759  305           
21 21.09.18 190 (Ю) 20000 м    8/6 600 м средняя 
[Sc|Ac trans]
+0.1 -0.5 96 -3  1011.8  -1.5  757  305           
00 22.09.18 180 (Ю) 20000 м    6/6 600 м 
[Sc]
+0.9 -0.8 88 -2  1011.4  -0.4  757  304  -0.2        замёрзшая 
09 22.09.18 170 (Ю) 6{12}  20000 м    10/9 600 м верхняя 
[Sc|Ci fib]
+0.9 -0.8 88 -2  1009.3  0.2  756  304           
12 22.09.18 160 (Ю) 20000 м    8/8 600 м 
[Sc]
+0.6 -0.8 90 -2  1009.7  0.4  756  304    +2.2       
15 22.09.18 170 (Ю) 20000 м    10/0 средняя 
[Ac und]
+0.4 -0.7 92 -3  1009.5  -0.2  756  304           
18 22.09.18 150 (ЮВ) 20000 м    10/0 средняя, верхняя 
[Ac trans|Ci fib]
-0.1 -0.9 94 -3  1009.3  -0.2  756  305           
21 22.09.18 160 (Ю) 20000 м    10/10 600 м 
[Sc]
+0.3 -0.5 94 -3  1009.3  756  304           
00 23.09.18 160 (Ю) 20000 м    9/9 600 м 
[Sc]
+0.7 -0.4 92 -2  1008.5  -0.8  755  303  -0.3        замёрзшая 
06 23.09.18 160 (Ю) 20000 м    10/3 600 м средняя 
[Sc|Ac und]
+1.2 -0.5 88 -2  1007.8  -0.7  754  303           
09 23.09.18 170 (Ю) 7{10}  20000 м    10/0 средняя 
[Ac As]
+0.7 -0.4 92 -3  1007.5  -0.3  754  303           
15 23.09.18 160 (Ю) 20000 м  {снег}  10/10 600 м 
[Sc]
+0.3 +0 98 -3  1006.7  -0.8  754  303           
18 23.09.18 150 (ЮВ) 10 км  слаб. снег  10/10 300 м 
[Sc]
+0.2 -0.1 98 -3  1006.2  -0.5  753  303           
21 23.09.18 150 (ЮВ) 10 км  слаб. снег  10/10 300 м 
[Sc]
+0 -0.3 98 -3  1005.5  -0.7  753  303           
Время (UTC), дата Ветер
(°,м/с) 
Видим.   Явления Облачность Т
(°С)
Тd
(°С)
f(%) Тe
(°С)
Pmin
(гПа)
dP
(гПа)
Po
(мм)
O2
(г/м3)
Тmin Tmax R s Состояние
почвы

Для получения пояснительной информации подведите курсор к названию столбца.

ПОГОДА Остров Котельный - архив

Всё, что Вы хотите узнать о погоде Остров Котельный - удобно и подробно!

Выберите нужную дату (начиная с 1 января 2015* года) и нажмите кнопку "Найти".
Будут отображены архивные сводки погоды по пункту Остров Котельный, начиная с указанной даты.


Отображать данные в формате CSV (для использования в таблицах Excel)


Внимание! Наш архив погоды предназначен исключительно для личного некоммерческого использования в познавательных целях. Если Вам необходимы официальные справки о состоянии погоды (для производственных, юридических, коммерческих и т.п. целей), обращайтесь в органы Росгидромета.

*Примечание: данная дата относится к архиву по метеостанциям СССР (Россия, СНГ, Балтия).
Архив по метеостанциям Зарубежной Европы и Азии (кроме Китая) хранится 10 дней, по другим регионам земного шара (Китай, Африка, Америка, Австралия, Океания) - 1 день.

Остров Котельный - район местоположения метеостанции


Название, широта, долгота, высота метеостанции:
Остров Котельный 76°ш. 137.9°д. 8 м над ур. моря [Российская Федерация]

Дополнительная информация

В oтличие oт бoльшинства пoгoдных сайтoв мы публикуем пoдрoбную метеoинфoрмацию в детальнoм прoфессиoнальнoм фoрмате.

Характеристики температуры и влажнoсти вoздуха измеряются на высoте 2 м в тени вдали oт зданий и деревьев.
Скoрoсть ветра измеряется на высoте 10 м (на урoвне рoста челoвека скoрoсть ветра ниже в 1.5-2 раза). Если метеoстанция нахoдится в гoрoде или в лесу, тo скoрoсть ветра занижена на 2-4 м/с пo сравнению с oткрытым местoм. Скoрoсть ветра над акватoриями крупных рек и oзёр, а также на вершинах хoлмoв на 2-5 м/с выше, чем в oбычных услoвиях.
Атмoсфернoе давление в разных тoчках местнoсти мoжет значительнo oтличаться oт давления на метеoстанции, в зависимoсти oт услoвий рельефа (при пoдъёме на 10 м давление пoнижается примернo на 1 мм рт.ст.).